F5IOR-13 Weather Reports


time (UTC)temp
F
wind
direction
speed
knots
gust
knots
rain 1hr
in
rain 24hr
in
rain mn
in
humidity
%
barometer
mb
20260507074217 53 360 0.9 3.5 0.00 0.00 0.00 88 986.4
20260507074017 53 360 0.9 3.5 0.00 0.00 0.00 88 986.4
20260507073817 53 360 0.9 3.5 0.00 0.00 0.00 88 986.4
20260507073717 53 360 0.9 3.5 0.00 0.00 0.00 88 986.4
20260507073617 53 360 0.9 3.5 0.00 0.00 0.00 88 986.4
20260507073517 53 360 0.9 3.5 0.00 0.00 0.00 88 986.4
20260506190817 53 300 2.6 5.2 0.09 0.00 0.09 89 982.9
20260506183817 54 298 2.6 5.2 0.09 0.00 0.09 88 982.4
20260506180817 54 306 3.5 7.0 0.09 0.00 0.09 85 982.0
20260506173817 55 323 3.5 10.4 0.09 0.00 0.09 82 981.7
20260506170817 55 315 4.3 13.0 0.09 0.00 0.09 81 981.9
20260506163817 55 343 2.6 12.2 0.05 0.00 0.05 85 981.7
20260506160817 55 354 3.5 13.9 0.05 0.00 0.05 86 981.7
20260506153817 54 347 4.3 18.2 0.05 0.00 0.05 84 981.8
20260506150817 55 311 4.3 19.1 0.05 0.00 0.05 77 981.7
20260506143817 59 253 7.0 17.4 0.05 0.00 0.05 65 981.3
20260506140817 60 241 8.7 16.5 0.05 0.00 0.05 60 981.1
20260506133817 58 230 7.8 17.4 0.13 0.00 0.13 64 981.2
20260506130817 59 240 7.0 14.8 0.13 0.00 0.13 66 981.3
20260506123817 59 240 7.0 14.8 0.13 0.00 0.13 68 981.3
20260506120817 58 244 7.8 15.6 0.13 0.00 0.13 71 981.5
20260506113817 57 250 7.8 15.6 0.13 0.00 0.13 71 981.6
20260506110817 56 258 7.8 15.6 0.09 0.00 0.09 73 981.8
20260506103817 55 259 7.8 15.6 0.09 0.00 0.09 75 981.9
20260506100817 55 259 7.8 14.8 0.09 0.00 0.09 80 981.8
20260506093817 54 259 7.8 14.8 0.09 0.00 0.09 80 981.8
20260506092217 53 258 7.8 13.9 0.09 0.00 0.09 82 981.8
20260506090616 53 257 7.8 13.9 0.09 0.00 0.09 83 981.7
20260506085017 53 255 7.8 13.9 0.09 0.00 0.09 84 981.4
20260506083416 53 256 7.8 13.0 0.09 0.00 0.09 86 981.0
20260506082617 53 256 7.8 13.0 0.09 0.00 0.09 86 981.0
20260506081817 53 248 7.8 13.0 0.36 0.01 0.36 86 981.0
20260506081016 52 241 4.3 9.6 0.36 0.01 0.36 91 981.3
20260506080217 52 241 4.3 9.6 0.36 0.01 0.36 91 981.3